This demonstration page uses our WeatherBlox Daily Observations layout. Learn more.

Left ArrowRight Arrow

Hourly Observations for February 8, 2016

Temp ( °F °C ) Dew Point ( °F °C ) Humidity (%) Winds ( mph kmh ) Pressure ( in mb ) Visibility ( mi km ) Precip ( " mm )
12:53 am 00:53 Clear 21 -6.1 15 -9.4 78 78 NW 3 6 30.50 1033 10 16 0.00 0.00
1:53 am 01:53 Clear 20 -6.7 15 -9.4 81 81 Calm 30.50 1033 10 16 0.00 0.00
2:53 am 02:53 Clear 20 -6.7 17 -8.3 89 89 Calm 30.49 1033 10 16 0.00 0.00
3:53 am 03:53 Clear 19 -7.2 15 -9.4 84 84 Calm 30.48 1032 10 16 0.00 0.00
4:53 am 04:53 Clear 18 -7.8 14 -10 84 84 Calm 30.50 1033 10 16 0.00 0.00
5:53 am 05:53 Clear 20 -6.7 15 -9.4 81 81 SW 8 13 30.51 1033 10 16 0.00 0.00
6:53 am 06:53 Clear 23 -5 18 -7.8 81 81 WSW 10 17 30.50 1033 10 16 0.00 0.00
7:53 am 07:53 Sunny 24 -4.4 19 -7.2 81 81 WSW 10 17 30.50 1033 10 16 0.00 0.00
8:53 am 08:53 Sunny 29 -1.7 22 -5.6 75 75 SW 18 30 30.48 1032 10 16 0.00 0.00
9:53 am 09:53 Sunny 39 3.9 27 -2.8 62 62 WSW 14 22 30.47 1032 10 16 0.00 0.00
10:53 am 10:53 Sunny 44 6.7 27 -2.8 51 51 WSW 20 31 30.45 1031 10 16 0.00 0.00
11:53 am 11:53 Sunny 48 8.9 28 -2.2 46 46 SW 17 28 30.42 1030 10 16 0.00 0.00
12:53 pm 12:53 Sunny 51 10.6 29 -1.7 43 43 SW 18 30 30.39 1029 10 16 0.00 0.00
1:53 pm 13:53 Sunny 54 12.2 30 -1.1 40 40 WSW 14 22 30.36 1028 10 16 0.00 0.00
2:53 pm 14:53 Sunny 55 12.8 30 -1.1 38 38 SW 12 19 30.34 1028 10 16 0.00 0.00
3:53 pm 15:53 Sunny 56 13.3 30 -1.1 37 37 WSW 3 6 30.34 1028 10 16 0.00 0.00
4:53 pm 16:53 Sunny 51 10.6 29 -1.7 43 43 Calm 30.35 1028 10 16 0.00 0.00
5:53 pm 17:53 Clear 44 6.7 28 -2.2 53 53 Calm 30.36 1028 10 16 0.00 0.00
6:53 pm 18:53 Clear 35 1.7 27 -2.8 72 72 Calm 30.37 1028 10 16 0.00 0.00
7:53 pm 19:53 Clear 30 -1.1 25 -3.9 82 82 WSW 6 9 30.38 1029 10 16 0.00 0.00
8:53 pm 20:53 Clear 36 2.2 29 -1.7 76 76 SW 12 19 30.35 1028 10 16 0.00 0.00
9:53 pm 21:53 Clear 34 1.1 28 -2.2 79 79 undefined N/A 30.34 1027 10 16 0.00 0.00
10:53 pm 22:53 Clear 32 0 28 -2.2 85 85 WSW 9 15 30.33 1027 10 16 0.00 0.00
11:53 pm 23:53 Clear 33 0.6 28 -2.2 82 82 SW 14 22 30.32 1027 10 16 0.00 0.00

Powered by AerisWeather